sat.trackr.live / text

‹ back to catalog

HULIANWANG DIGUI-119

NORAD 67059 · 2025-295A

PAYLOAD ACTIVE UNKNOWN

§ Identity

Operator
Country
PRC
Launch date
2025-12-11
Launch site
WSC
Launch vehicle
Mass (kg)
RCS (m²)

External: N2YO · Heavens-Above · Gunter

§ Orbital elements

Epoch: 2026-09-20T15:13:40.253088Z

Period
108.33 min
Inclination
50.0045°
Eccentricity
0.0000729
Mean motion
13.29326004 rev/d
Perigee alt
1,148.8 km
Apogee alt
1,149.9 km
Semi-major
7,527.4 km
B*
2.5748e-5
RAAN
43.4526°
Arg perigee
85.1897°
Mean anomaly
274.9058°
Rev number
3,819

§ Raw data

HULIANWANG DIGUI-1191 67059U 25295A   26263.63449367 -.00000112  00000+0  25748-4 0  99952 67059  50.0045  43.4526 0000729  85.1897 274.9058 13.29326004 38199

JSON: /api/v1/satellites/67059 · /tle

For live sub-satellite position, see the globe view (requires WebGL).

§ Visibility from observer

Set your observer location to see the next 7 days of passes ≥ 10°. The values pass through the URL so the page stays shareable.

No JS? Fill the form by hand. The geolocation button needs JavaScript.